Weather in Staraya Bryan'

Russia / Republic of Buryatia     51°35′03″N   108°08′01″E
temp.,
°C
wind,
m/s
gust,
m/s
humid.,
%
clouds,
%
prec.,
mm/h
press.,
hPa
HPBL,
m
13 august, sat
sat1323:00+11wsw11755 0.0 100911
02:00+10sw11770 0.0 100910
05:00+10wsw118192 0.0 100910
08:00+16wnw115757 0.0 1009277
11:00+22nnw11379 0.0 10061594
14:00+25nnw1129100 0.0 10042402
17:00+24nw2130100 0.0 10032445
20:00+16w1154100 0.0 100411
14 august, sun
sun1423:00+14n1162100 0.0 100511
02:00+12nnw1169100 0.0 100511
05:00+11n117274 0.0 100510
08:00+16n12535 0.0 1005209
11:00+22nne23352 0.0 10041541
14:00+25n232917 0.0 10022542
17:00+24nw4329100 0.0 10022257
20:00+16nw22547 0.0 100519
15 august, mon
mon1523:00+14wsw115899 0.0 100611
02:00+13s225317 0.0 100616
05:00+12ssw22635 0.0 100617
08:00+16sw11605 0.1 1007186
11:00+23sw24435 0.1 10051527
14:00+24sw344174 0.1 10031503
17:00+25wsw363797 0.0 10022396
20:00+17sw11690 0.3 100211
16 august, tue
tue1623:00+14wsw2288100 1.3 100316
02:00+14se019744 4.0 100319
05:00+14nw229688 0.1 100453
08:00+14nnw2689100 0.1 1006529
11:00+19n335416 0.0 10041122
14:00+21nnw3242100 0.0 10021855
17:00+20nnw444686 0.0 1001989
20:00+14nnw396099 0.0 1001308
17 august, wed
wed1723:00+11n2388100 1.1 100470
02:00+10nnw2599100 1.5 1004221
05:00+10w1297100 0.2 100563
08:00+12wnw23865 0.2 1006319
11:00+17nw44497 0.0 10061545
14:00+19nw45365 0.0 10052253
17:00+18nw45332 0.0 10062275
20:00+11nw22600 0.0 100821